[[{"header":{"parameterUnit":"m.s-1","parameterCategory":2,"la1":30.2992,"la2":30.254,"lo1":-89.0895,"lo2":-89.0443,"dy":0.0025,"dx":0.0025,"nx":19,"ny":19,"refTime":"2026-04-08T03:00:00:Z","depth":"0","parameterNumber":2,"parameterNumberName":"U-component_of_CURRENTS"},"data":[0,0,0,-0.1778,-0.1779,-0.1825,-0.1825,-0.189,-0.189,0,0,0,0,0,0,0,0,0,0,0,-0.1754,-0.1755,-0.1778,-0.1779,-0.1825,-0.1825,-0.1889,-0.189,0,0,0,0,0,0,0,0,0,0,0,-0.1754,-0.1755,-0.1755,-0.1779,-0.1825,-0.1825,-0.1889,-0.1852,0,0,0,0,0,0,0,0,0,0,-0.1806,-0.1781,-0.1755,-0.1755,-0.178,-0.1825,-0.1825,-0.185,-0.1855,-0.1872,0,-0.1877,0,-0.1892,-0.1895,-0.1895,0,0,0,-0.1775,-0.1777,-0.1797,-0.1755,-0.178,-0.1825,-0.1803,-0.1853,-0.1857,-0.1877,-0.1878,-0.1881,-0.1893,-0.1896,-0.1896,-0.2054,-0.2055,0,0,-0.1772,-0.1757,-0.1793,-0.18,-0.1791,-0.1802,-0.1805,-0.1855,-0.1856,-0.1879,-0.1883,-0.1894,-0.1896,-0.1897,-0.2053,-0.2054,0,0,0,-0.1768,-0.1755,-0.1773,-0.1797,-0.1808,-0.1803,-0.1807,-0.1853,-0.1861,-0.1884,-0.1894,-0.1896,-0.1897,-0.2052,-0.2053,-0.2108,0,0,0,-0.1766,-0.1754,-0.1772,-0.1763,-0.1807,-0.183,-0.1803,-0.1857,-0.1864,-0.1894,-0.1896,-0.1898,-0.205,-0.2053,-0.2103,-0.2131,0,0,0,-0.1753,-0.1752,-0.1758,-0.1762,-0.1786,-0.183,-0.184,-0.1859,-0.1871,-0.1895,-0.1898,-0.2049,-0.2052,-0.21,-0.2125,-0.2143,0,0,0,-0.1734,-0.1753,-0.1758,-0.1799,-0.1786,-0.1877,-0.184,-0.189,-0.1916,-0.1897,-0.205,-0.2053,-0.2098,-0.2121,-0.214,-0.2039,-0.2047,0,0,-0.1752,-0.1755,-0.1786,-0.1793,-0.1888,-0.1871,-0.198,-0.198,-0.1968,-0.203,-0.2033,-0.2105,-0.2124,-0.2142,-0.2203,-0.2205,0,0,0,-0.1791,-0.1812,-0.1845,-0.1899,-0.1958,-0.2026,-0.2039,-0.2057,-0.2101,-0.1997,-0.2148,-0.2159,-0.2167,-0.2102,-0.2105,-0.2066,-0.2066,-0.2066,-0.2066,-0.1776,-0.1838,-0.1912,-0.1997,-0.206,-0.214,-0.2191,-0.2223,-0.2192,-0.2227,-0.2235,-0.2331,-0.2265,-0.2265,-0.2229,-0.2269,-0.2269,-0.2269,-0.227,-0.1826,-0.1871,-0.1968,-0.2056,-0.2148,-0.2234,-0.2339,-0.2333,-0.2394,-0.2351,-0.2355,-0.2203,-0.2271,-0.2231,-0.2274,-0.2273,-0.2272,-0.2272,-0.2272,-0.181,-0.1842,-0.1909,-0.2042,-0.2161,-0.2267,-0.2358,-0.2419,-0.2441,-0.2466,-0.235,-0.2347,-0.228,-0.2442,-0.2443,-0.2443,-0.2443,-0.2443,-0.2443,-0.1749,-0.1829,-0.1878,-0.2025,-0.2088,-0.2203,-0.2353,-0.2396,-0.2421,-0.2416,-0.2414,-0.2321,-0.2383,-0.234,-0.2447,-0.2447,-0.2446,-0.2446,-0.2445,-0.1713,-0.1733,-0.1801,-0.1858,-0.2012,-0.2063,-0.2234,-0.2307,-0.2368,-0.2357,-0.231,-0.2383,-0.2349,-0.2345,-0.2301,-0.2393,-0.2393,-0.2393,-0.2393,-0.1647,-0.168,-0.1716,-0.1773,-0.1875,-0.1988,-0.2001,-0.2099,-0.2194,-0.22,-0.2271,-0.2207,-0.2211,-0.2166,-0.2166,-0.2118,-0.2162,-0.2161,-0.2161,-0.1606,-0.1627,-0.1612,-0.1689,-0.1798,-0.1864,-0.1829,-0.1907,-0.2059,-0.2153,-0.2247,-0.2257,-0.2166,-0.2175,-0.2102,-0.2105,-0.2026,0,0]},{"header":{"parameterUnit":"m.s-1","parameterCategory":2,"la1":30.2992,"la2":30.254,"lo1":-89.0895,"lo2":-89.0443,"dy":0.0025,"dx":0.0025,"nx":19,"ny":19,"refTime":"2026-04-08T03:00:00:Z","depth":"0","parameterNumber":3,"parameterNumberName":"V-component_of_CURRENTS"},"data":[0,0,0,-0.0185,-0.0184,-0.0097,-0.0097,0.0042,0.0044,0,0,0,0,0,0,0,0,0,0,0,-0.0216,-0.0216,-0.0185,-0.0184,-0.0097,-0.0097,0.0042,0.0044,0,0,0,0,0,0,0,0,0,0,0,-0.0216,-0.0216,-0.0216,-0.0183,-0.0097,-0.0097,0.0042,-0.0027,0,0,0,0,0,0,0,0,0,0,-0.0113,-0.0156,-0.0216,-0.0216,-0.0183,-0.0098,-0.0097,-0.0031,-0.0023,0.0007,0,0.0011,0,0.0027,0.0052,0.0053,0,0,0,-0.017,-0.0163,-0.0136,-0.0216,-0.0182,-0.0098,-0.0132,-0.0026,-0.0017,0.0018,0.0013,0.0019,0.0029,0.0053,0.0054,0.0151,0.0151,0,0,-0.0175,-0.0198,-0.0143,-0.0131,-0.0171,-0.0135,-0.013,-0.0021,-0.0018,0.0014,0.0022,0.0031,0.0054,0.0055,0.0151,0.0151,0,0,0,-0.0198,-0.0202,-0.0178,-0.0137,-0.0126,-0.0133,-0.0127,-0.0022,-0.0014,0.0023,0.0033,0.0055,0.0056,0.0151,0.0151,0.0063,0,0,0,-0.02,-0.0216,-0.0181,-0.0193,-0.0129,-0.0078,-0.0131,-0.0022,-0.0009,0.0032,0.0055,0.0058,0.0151,0.0151,0.0065,0.0009,0,0,0,-0.0218,-0.0218,-0.0211,-0.0195,-0.0163,-0.008,-0.0065,-0.0019,-0.0004,0.0053,0.0058,0.0151,0.0151,0.0067,0.0014,0.0024,0,0,0,-0.024,-0.025,-0.0212,-0.0223,-0.0164,-0.013,-0.0066,-0.0028,0.0013,0.0056,0.0151,0.0151,0.0068,0.0017,0.0026,0.0053,0.0046,0,0,-0.0268,-0.0254,-0.0263,-0.0227,-0.0233,-0.014,-0.0121,-0.0039,0.0031,0.012,0.0122,0.0065,0.0014,0.0025,0.0066,0.0058,0,0,0,-0.0282,-0.0296,-0.0288,-0.0284,-0.0236,-0.0196,-0.0103,-0.0049,0.0032,0.0055,0.0094,0.0065,0.0075,0.0096,0.0091,0.0305,0.0152,0.0152,0.0152,-0.035,-0.0339,-0.0368,-0.0347,-0.0316,-0.0223,-0.0174,-0.0077,-0.0004,0.0024,0.0015,-0.001,0.0012,0.0008,0.0229,0.0051,0.0051,0.0051,0.0051,-0.0431,-0.0459,-0.0442,-0.0466,-0.0408,-0.0371,-0.0241,-0.0174,-0.0078,-0.0027,-0.0012,0.0029,-0.0004,0.0235,0.0045,0.0046,0.0047,0.0047,0.0048,-0.0489,-0.0505,-0.0519,-0.056,-0.0551,-0.0468,-0.0435,-0.0311,-0.0174,-0.0158,-0.0076,-0.0074,0.0119,-0.0133,-0.0133,-0.0133,-0.0134,-0.0134,-0.0134,-0.0544,-0.0562,-0.0633,-0.066,-0.0684,-0.0668,-0.054,-0.0463,-0.0291,-0.0172,-0.017,0.0147,-0.0065,-0.0077,-0.0137,-0.0137,-0.0136,-0.0136,-0.0136,-0.0623,-0.0638,-0.0747,-0.0796,-0.0856,-0.0873,-0.074,-0.0542,-0.0415,-0.0325,0.0109,-0.0149,-0.011,-0.0104,-0.0114,-0.0181,-0.0181,-0.0181,-0.0181,-0.068,-0.0697,-0.0858,-0.0959,-0.1019,-0.0973,-0.0886,-0.0626,-0.0156,0.0115,0.0212,0.0287,0.0279,0.0346,0.0343,0.0344,0.0396,0.0397,0.0398,-0.0749,-0.0794,-0.0921,-0.1025,-0.1101,-0.107,-0.097,-0.0643,0.0081,0.0445,0.0507,0.0483,0.0616,0.0587,0.0711,0.0689,0.0697,0,0]}],[{"header":{"parameterUnit":"m.s-1","parameterCategory":2,"la1":30.2992,"la2":30.254,"lo1":-89.0895,"lo2":-89.0443,"dy":0.0025,"dx":0.0025,"nx":19,"ny":19,"refTime":"2026-04-08T03:00:00:Z","depth":"2","parameterNumber":2,"parameterNumberName":"U-component_of_CURRENTS"},"data":[0,0,0,-0.1617,-0.1618,-0.1661,-0.1661,-0.1714,-0.1715,0,0,0,0,0,0,0,0,0,0,0,-0.1597,-0.1597,-0.1617,-0.1618,-0.1661,-0.1661,-0.1714,-0.1715,0,0,0,0,0,0,0,0,0,0,0,-0.1596,-0.1597,-0.1597,-0.1618,-0.1661,-0.1661,-0.1714,-0.1681,0,0,0,0,0,0,0,0,0,0,-0.1639,-0.1619,-0.1597,-0.1597,-0.1619,-0.1661,-0.1661,-0.1679,-0.1683,-0.1696,0,-0.1702,0,-0.1715,-0.1718,-0.1719,0,0,0,-0.1614,-0.1615,-0.1633,-0.1597,-0.1619,-0.1661,-0.164,-0.1681,-0.1685,-0.17,-0.1703,-0.1706,-0.1716,-0.1719,-0.1719,-0.1861,-0.1862,0,0,-0.1611,-0.16,-0.163,-0.1635,-0.1631,-0.1639,-0.1642,-0.1684,-0.1685,-0.1704,-0.1707,-0.1717,-0.1719,-0.172,-0.186,-0.1861,0,0,0,-0.1608,-0.1598,-0.1614,-0.1633,-0.1644,-0.164,-0.1644,-0.1683,-0.169,-0.1708,-0.1717,-0.172,-0.172,-0.1859,-0.186,-0.1916,0,0,0,-0.1606,-0.1596,-0.1613,-0.1606,-0.1643,-0.1664,-0.1642,-0.1687,-0.1692,-0.1717,-0.172,-0.1721,-0.1857,-0.186,-0.1912,-0.1939,0,0,0,-0.1594,-0.1595,-0.1601,-0.1605,-0.1627,-0.1664,-0.1672,-0.1688,-0.1699,-0.1719,-0.1721,-0.1857,-0.1859,-0.1908,-0.1933,-0.1951,0,0,0,-0.1579,-0.1597,-0.1601,-0.1638,-0.1627,-0.1707,-0.1672,-0.1717,-0.1739,-0.172,-0.1858,-0.186,-0.1907,-0.1929,-0.1948,-0.1841,-0.1848,0,0,-0.1596,-0.1598,-0.1626,-0.1632,-0.1715,-0.1701,-0.1798,-0.1797,-0.1787,-0.184,-0.1843,-0.1913,-0.1932,-0.1951,-0.1995,-0.1996,0,0,0,-0.163,-0.1649,-0.1677,-0.1724,-0.1777,-0.1838,-0.185,-0.1869,-0.1911,-0.1813,-0.1952,-0.1963,-0.1972,-0.1902,-0.1905,-0.1873,-0.1873,-0.1872,-0.1872,-0.162,-0.1672,-0.1736,-0.1809,-0.1866,-0.194,-0.1989,-0.2021,-0.1992,-0.2029,-0.2037,-0.213,-0.206,-0.206,-0.2068,-0.2068,-0.2069,-0.2069,-0.2069,-0.1661,-0.1699,-0.1784,-0.186,-0.1944,-0.2024,-0.2124,-0.2123,-0.2186,-0.2147,-0.2152,-0.2001,-0.2065,-0.2074,-0.2073,-0.2072,-0.2072,-0.2072,-0.2071,-0.1646,-0.1673,-0.1733,-0.1849,-0.1958,-0.2058,-0.2144,-0.2207,-0.2234,-0.226,-0.2144,-0.2141,-0.213,-0.2241,-0.2241,-0.2242,-0.2242,-0.2242,-0.2242,-0.1591,-0.166,-0.1703,-0.1834,-0.189,-0.1999,-0.2144,-0.2186,-0.2212,-0.2208,-0.2207,-0.2187,-0.2182,-0.2141,-0.2246,-0.2245,-0.2245,-0.2244,-0.2244,-0.1553,-0.1574,-0.163,-0.168,-0.1816,-0.1856,-0.2024,-0.2094,-0.2156,-0.2144,-0.2173,-0.2173,-0.2138,-0.2134,-0.2093,-0.2179,-0.2179,-0.2179,-0.2179,-0.1492,-0.1521,-0.1547,-0.1593,-0.1678,-0.1779,-0.177,-0.1821,-0.1938,-0.1942,-0.1952,-0.188,-0.1888,-0.1834,-0.1837,-0.1788,-0.1795,-0.1794,-0.1793,-0.145,-0.1467,-0.1448,-0.1512,-0.1601,-0.1652,-0.1577,-0.1511,-0.1589,-0.1776,-0.1865,-0.2157,-0.2076,-0.2079,-0.2014,-0.2012,-0.1941,0,0]},{"header":{"parameterUnit":"m.s-1","parameterCategory":2,"la1":30.2992,"la2":30.254,"lo1":-89.0895,"lo2":-89.0443,"dy":0.0025,"dx":0.0025,"nx":19,"ny":19,"refTime":"2026-04-08T03:00:00:Z","depth":"2","parameterNumber":3,"parameterNumberName":"V-component_of_CURRENTS"},"data":[0,0,0,-0.015,-0.0148,-0.0067,-0.0066,0.0063,0.0064,0,0,0,0,0,0,0,0,0,0,0,-0.018,-0.0179,-0.015,-0.0148,-0.0067,-0.0066,0.0062,0.0064,0,0,0,0,0,0,0,0,0,0,0,-0.018,-0.0179,-0.0179,-0.0148,-0.0067,-0.0066,0.0062,-0.0002,0,0,0,0,0,0,0,0,0,0,-0.0083,-0.0125,-0.0179,-0.0179,-0.0148,-0.0067,-0.0066,-0.0006,0.0002,0.0029,0,0.0032,0,0.0047,0.0072,0.0072,0,0,0,-0.0135,-0.0131,-0.0105,-0.0179,-0.0147,-0.0067,-0.01,-0.0002,0.0007,0.0038,0.0034,0.0039,0.0049,0.0072,0.0073,0.0155,0.0155,0,0,-0.014,-0.0163,-0.0111,-0.0101,-0.0137,-0.0103,-0.0097,0.0003,0.0005,0.0034,0.0042,0.0051,0.0073,0.0074,0.0155,0.0155,0,0,0,-0.0161,-0.0167,-0.0144,-0.0106,-0.0095,-0.01,-0.0095,0.0001,0.0009,0.0043,0.0053,0.0074,0.0075,0.0155,0.0155,0.0066,0,0,0,-0.0164,-0.018,-0.0146,-0.0159,-0.0098,-0.0051,-0.0099,0.0002,0.0014,0.0052,0.0074,0.0077,0.0155,0.0155,0.0068,0.0014,0,0,0,-0.0181,-0.0182,-0.0175,-0.016,-0.013,-0.0052,-0.0038,0.0005,0.002,0.0072,0.0077,0.0155,0.0155,0.007,0.0019,0.0027,0,0,0,-0.0203,-0.0214,-0.0176,-0.0189,-0.0131,-0.0103,-0.0038,-0.0005,0.0032,0.0075,0.0155,0.0155,0.0071,0.0021,0.0029,0.0056,0.0048,0,0,-0.0232,-0.0218,-0.0228,-0.0192,-0.0204,-0.0112,-0.0101,-0.0023,0.0046,0.0127,0.0129,0.0067,0.0019,0.0028,0.0057,0.0049,0,0,0,-0.0247,-0.0262,-0.0256,-0.0254,-0.0211,-0.0176,-0.0088,-0.0037,0.0038,0.0067,0.0093,0.0066,0.0074,0.0096,0.009,0.0156,0.0156,0.0156,0.0156,-0.0316,-0.0307,-0.034,-0.0322,-0.0296,-0.0211,-0.0167,-0.0076,-0.0003,0.0021,0.0012,-0.0019,0.0003,-0.0001,0.0044,0.0044,0.0043,0.0043,0.0043,-0.0399,-0.0428,-0.0416,-0.0443,-0.0392,-0.0363,-0.0242,-0.0177,-0.0089,-0.0036,-0.0023,0.0023,-0.0014,0.0036,0.0038,0.0038,0.0039,0.004,0.004,-0.0458,-0.0475,-0.0491,-0.0537,-0.0534,-0.0459,-0.0432,-0.0315,-0.0184,-0.017,-0.0088,-0.0086,-0.0076,-0.0145,-0.0146,-0.0146,-0.0146,-0.0146,-0.0146,-0.0512,-0.0533,-0.0604,-0.0636,-0.0662,-0.0652,-0.0535,-0.0462,-0.0298,-0.0185,-0.0183,-0.0082,-0.0076,-0.0085,-0.015,-0.0149,-0.0149,-0.0148,-0.0148,-0.0592,-0.0605,-0.0715,-0.0765,-0.083,-0.0847,-0.0725,-0.0537,-0.0418,-0.0331,-0.0165,-0.0163,-0.0124,-0.0117,-0.0124,-0.0196,-0.0196,-0.0196,-0.0196,-0.0647,-0.0665,-0.0824,-0.0924,-0.0985,-0.0944,-0.086,-0.0621,-0.0359,-0.0208,-0.0208,-0.0172,-0.0169,-0.0129,-0.0122,-0.0128,-0.0201,-0.0202,-0.0202,-0.0716,-0.0759,-0.0884,-0.0988,-0.1063,-0.1034,-0.0935,-0.0637,-0.0273,-0.0204,-0.023,-0.0192,-0.0136,-0.0133,-0.0064,-0.0056,-0.0063,0,0]}],[{"header":{"parameterUnit":"m.s-1","parameterCategory":2,"la1":30.2992,"la2":30.254,"lo1":-89.0895,"lo2":-89.0443,"dy":0.0025,"dx":0.0025,"nx":19,"ny":19,"refTime":"2026-04-08T03:00:00:Z","depth":"4","parameterNumber":2,"parameterNumberName":"U-component_of_CURRENTS"},"data":[0,0,0,-0.118,-0.1182,-0.1264,-0.1265,-0.1319,-0.1319,0,0,0,0,0,0,0,0,0,0,0,-0.1155,-0.1156,-0.118,-0.1182,-0.1264,-0.1265,-0.1319,-0.1319,0,0,0,0,0,0,0,0,0,0,0,-0.1155,-0.1156,-0.1157,-0.1182,-0.1264,-0.1265,-0.1318,-0.1269,0,0,0,0,0,0,0,0,0,0,-0.1195,-0.1183,-0.1156,-0.1157,-0.1183,-0.1264,-0.1265,-0.1267,-0.1272,-0.1267,0,-0.1288,0,-0.1303,-0.1322,-0.1322,0,0,0,-0.1181,-0.1179,-0.1198,-0.1157,-0.1184,-0.1264,-0.1227,-0.127,-0.1276,-0.1273,-0.1289,-0.1291,-0.1304,-0.1322,-0.1322,-0.1425,-0.1425,0,0,-0.1176,-0.1171,-0.1195,-0.1202,-0.1214,-0.1224,-0.1229,-0.1274,-0.1284,-0.1289,-0.1293,-0.1305,-0.1322,-0.1322,-0.1424,-0.1425,0,0,0,-0.1164,-0.1168,-0.1187,-0.1199,-0.1218,-0.1227,-0.1233,-0.1282,-0.1289,-0.1293,-0.1305,-0.1322,-0.1323,-0.1423,-0.1424,-0.1476,0,0,0,-0.1161,-0.1161,-0.1185,-0.1182,-0.1217,-0.1259,-0.124,-0.1286,-0.1291,-0.1305,-0.1322,-0.1323,-0.1422,-0.1423,-0.1472,-0.1493,0,0,0,-0.115,-0.1159,-0.1171,-0.1182,-0.1218,-0.1259,-0.1268,-0.1287,-0.1298,-0.1322,-0.1323,-0.1421,-0.1423,-0.1469,-0.1488,-0.151,0,0,0,-0.1137,-0.1157,-0.1171,-0.1205,-0.1217,-0.1283,-0.1268,-0.1315,-0.134,-0.1322,-0.1422,-0.1424,-0.1468,-0.1485,-0.1507,-0.1287,0,0,0,-0.115,-0.1159,-0.1179,-0.1194,-0.1253,-0.1271,-0.1349,-0.1369,-0.1369,-0.1401,-0.1404,-0.1473,-0.1488,-0.1509,-0.1407,0,0,0,0,-0.1175,-0.1189,-0.1212,-0.1253,-0.1301,-0.1364,-0.1394,-0.142,-0.147,-0.1394,-0.15,-0.1508,-0.1519,-0.1384,-0.1434,-0.1433,-0.1433,-0.1433,-0.1433,-0.1169,-0.1203,-0.1247,-0.13,-0.1353,-0.1434,-0.1488,-0.1531,-0.1519,-0.1561,-0.1569,-0.1648,-0.1511,-0.1592,-0.1592,-0.1592,-0.1593,-0.1593,-0.1593,-0.1179,-0.1194,-0.1269,-0.1323,-0.1405,-0.1481,-0.1583,-0.1604,-0.1677,-0.1654,-0.1662,-0.1473,-0.1599,-0.1598,-0.1597,-0.1596,-0.1596,-0.1595,-0.1595,-0.1148,-0.1159,-0.1216,-0.1305,-0.1408,-0.151,-0.1588,-0.1671,-0.172,-0.175,-0.1588,-0.1684,-0.1656,-0.1747,-0.1748,-0.1748,-0.1748,-0.1748,-0.1748,-0.1078,-0.1135,-0.1173,-0.1283,-0.134,-0.1443,-0.1595,-0.1635,-0.1709,-0.1629,-0.1761,-0.17,-0.1695,-0.1665,-0.1752,-0.1751,-0.1751,-0.175,-0.175,-0.1002,-0.1042,-0.1079,-0.1131,-0.1252,-0.1311,-0.1484,-0.1529,-0.1557,-0.1528,-0.1556,-0.1565,-0.1521,-0.152,-0.1482,-0.1518,-0.1515,-0.1513,0,-0.0934,-0.0962,-0.0984,-0.1023,-0.1077,-0.1216,-0.1218,-0.1302,-0.1382,-0.1336,-0.1542,-0.1572,-0.1577,-0.1524,-0.152,-0.1473,0,0,0,-0.0875,-0.0891,-0.0871,-0.0932,-0.0982,-0.1069,-0.1209,-0.1191,-0.1379,-0.1348,-0.145,-0.1466,-0.1622,-0.1762,-0.1715,-0.1709,-0.1659,0,0]},{"header":{"parameterUnit":"m.s-1","parameterCategory":2,"la1":30.2992,"la2":30.254,"lo1":-89.0895,"lo2":-89.0443,"dy":0.0025,"dx":0.0025,"nx":19,"ny":19,"refTime":"2026-04-08T03:00:00:Z","depth":"4","parameterNumber":3,"parameterNumberName":"V-component_of_CURRENTS"},"data":[0,0,0,-0.0073,-0.0072,-0.0014,-0.0013,0.0076,0.0077,0,0,0,0,0,0,0,0,0,0,0,-0.0095,-0.0095,-0.0073,-0.0072,-0.0014,-0.0013,0.0076,0.0077,0,0,0,0,0,0,0,0,0,0,0,-0.0095,-0.0095,-0.0095,-0.0072,-0.0014,-0.0013,0.0076,0.0031,0,0,0,0,0,0,0,0,0,0,-0.0027,-0.0058,-0.0095,-0.0095,-0.0071,-0.0014,-0.0013,0.0029,0.0034,0.0051,0,0.0051,0,0.0063,0.0082,0.0082,0,0,0,-0.0061,-0.0062,-0.0043,-0.0095,-0.0071,-0.0014,-0.0037,0.0031,0.0037,0.0057,0.0053,0.0056,0.0064,0.0083,0.0083,0.012,0.0119,0,0,-0.0064,-0.0084,-0.0047,-0.004,-0.0066,-0.0039,-0.0035,0.0035,0.0034,0.0053,0.0058,0.0066,0.0083,0.0084,0.012,0.012,0,0,0,-0.0081,-0.0086,-0.0069,-0.0044,-0.0036,-0.0038,-0.0033,0.0032,0.0038,0.0059,0.0067,0.0084,0.0085,0.012,0.012,0.0035,0,0,0,-0.0082,-0.0096,-0.0071,-0.0081,-0.0038,-0.0005,-0.0038,0.0033,0.0041,0.0067,0.0084,0.0085,0.012,0.012,0.0038,-0.0009,0,0,0,-0.0096,-0.0097,-0.0093,-0.0082,-0.0061,-0.0006,0.0005,0.0035,0.0046,0.0083,0.0086,0.012,0.012,0.0041,-0.0004,-0.0001,0,0,0,-0.0113,-0.0123,-0.0094,-0.011,-0.0062,-0.0053,0.0005,0.0022,0.0047,0.0084,0.012,0.012,0.0041,-0.0001,0.0001,-0.0017,0,0,0,-0.0137,-0.0127,-0.0138,-0.0111,-0.0135,-0.006,-0.0071,-0.0009,0.0049,0.0101,0.0102,0.0037,-0.0003,-0.0,-0.0044,0,0,0,0,-0.0154,-0.0169,-0.017,-0.0177,-0.0152,-0.0138,-0.0071,-0.0035,0.0016,0.006,0.0051,0.0029,0.0033,0.003,0.0117,0.0117,0.0118,0.0118,0.0118,-0.0212,-0.0212,-0.0249,-0.0248,-0.0239,-0.0187,-0.0162,-0.0097,-0.0034,-0.0021,-0.003,-0.0073,-0.008,-0.001,-0.0011,-0.0011,-0.0011,-0.0012,-0.0012,-0.0283,-0.0311,-0.032,-0.0355,-0.0334,-0.0328,-0.0251,-0.0199,-0.0141,-0.009,-0.0081,-0.0047,-0.002,-0.0018,-0.0017,-0.0016,-0.0016,-0.0015,-0.0015,-0.0328,-0.0344,-0.0371,-0.0432,-0.0455,-0.0415,-0.0411,-0.0328,-0.0226,-0.0219,-0.0173,-0.0117,-0.0119,-0.0196,-0.0196,-0.0197,-0.0197,-0.0197,-0.0197,-0.0358,-0.039,-0.0459,-0.0511,-0.0549,-0.0562,-0.0496,-0.0442,-0.0331,-0.0272,-0.0232,-0.0134,-0.0128,-0.0128,-0.02,-0.02,-0.0199,-0.0199,-0.0199,-0.0409,-0.0427,-0.053,-0.0587,-0.0674,-0.0676,-0.0624,-0.0494,-0.0435,-0.0357,-0.0278,-0.0274,-0.0237,-0.0228,-0.023,-0.0335,-0.0335,-0.0336,0,-0.0439,-0.0459,-0.0598,-0.0697,-0.076,-0.0742,-0.0675,-0.0587,-0.0443,-0.0445,-0.0425,-0.0343,-0.0336,-0.03,-0.0292,-0.0298,0,0,0,-0.0481,-0.052,-0.0621,-0.0726,-0.0799,-0.0714,-0.0653,-0.0603,-0.0478,-0.0403,-0.0349,-0.0346,-0.0284,-0.021,-0.0141,-0.0134,-0.0129,0,0]}]]